QPF
0.00 0.00 0.00 0.00 0.00 0.00 0.00 0.00 0.00 0.00 0.00 0.00 0.00 0.00 0.00 0.00 0.00 0.00 0.00 0.00 0.00 0.00 0.00 0.01 0.01 0.01 0.01 0.03 0.01 0.02 0.06 0.08 0.04 0.02 0.02 0.03 0.03 0.01 0.00 0.00 0.00 0.00 0.00
0.00 0.00 0.00 0.00 0.00 0.00 0.00 0.00 0.00 0.00 0.00 0.00 0.00 0.00 0.00 0.00 0.00 0.00 0.00 0.00 0.00 0.00 0.00 0.00 0.00 0.01 0.01 0.04 0.05 0.06 0.10 0.09 0.10 0.06 0.04 0.03 0.03 0.02 0.01 0.00 0.00 0.00 0.00
0.00 0.00 0.00 0.00 0.00 0.00 0.00 0.00 0.00 0.00 0.00 0.00 0.00 0.00 0.00 0.00 0.00 0.00 0.00 0.00 0.00 0.00 0.00 0.00 0.01 0.02 0.01 0.02 0.04 0.04 0.06 0.09 0.09 0.08 0.04 0.03 0.03 0.02 0.01 0.00 0.00 0.00 0.00
0.00 0.00 0.00 0.00 0.00 0.00 0.00 0.00 0.00 0.00 0.00 0.00 0.00 0.00 0.00 0.00 0.00 0.00 0.00 0.00 0.00 0.00 0.01 0.02 0.03 0.04 0.02 0.01 0.01 0.01 0.02 0.05 0.07 0.06 0.03 0.02 0.03 0.02 0.02 0.01 0.00 0.00 0.00
0.00 0.00 0.00 0.00 0.00 0.00 0.00 0.00 0.00 0.00 0.00 0.00 0.00 0.00 0.00 0.00 0.00 0.00 0.00 0.00 0.00 0.00 0.00 0.00 0.01 0.01 0.01 0.01 0.01 0.01 0.02 0.04 0.04 0.02 0.01 0.01 0.02 0.02 0.02 0.01 0.00 0.00 0.00
0.00 0.00 0.00 0.00 0.00 0.00 0.00 0.00 0.00 0.00 0.00 0.00 0.00 0.00 0.00 0.00 0.00 0.00 0.00 0.00 0.00 0.00 0.00 0.00 0.00 0.00 0.00 0.00 0.01 0.02 0.02 0.04 0.03 0.03 0.01 0.00 0.00 0.01 0.02 0.01 0.00 0.00 0.00
0.00 0.00 0.00 0.00 0.00 0.00 0.00 0.00 0.00 0.00 0.00 0.00 0.00 0.00 0.00 0.00 0.00 0.00 0.00 0.00 0.00 0.00 0.00 0.00 0.00 0.00 0.00 0.00 0.00 0.00 0.01 0.01 0.01 0.01 0.01 0.00 0.00 0.00 0.00 0.01 0.00 0.00 0.00
0.00 0.00 0.00 0.00 0.00 0.00 0.00 0.00 0.00 0.00 0.00 0.00 0.00 0.00 0.00 0.00 0.00 0.00 0.00 0.00 0.00 0.00 0.00 0.00 0.00 0.00 0.00 0.00 0.00 0.00 0.00 0.00 0.00 0.00 0.00 0.00 0.00 0.00 0.01 0.01 0.01 0.01 0.00
0.00 0.00 0.00 0.00 0.00 0.00 0.00 0.00 0.00 0.00 0.00 0.00 0.00 0.00 0.00 0.00 0.00 0.00 0.00 0.00 0.00 0.00 0.00 0.00 0.00 0.00 0.00 0.00 0.00 0.00 0.00 0.00 0.00 0.00 0.00 0.00 0.00 0.00 0.00 0.01 0.00 0.00 0.00
0.00 0.00 0.00 0.00 0.00 0.00 0.00 0.00 0.00 0.00 0.00 0.00 0.00 0.00 0.00 0.00 0.00 0.00 0.00 0.00 0.00 0.00 0.00 0.00 0.00 0.00 0.00 0.00 0.00 0.00 0.00 0.00 0.00 0.00 0.00 0.00 0.00 0.00 0.00 0.00 0.01 0.00 0.00
0.00 0.00 0.00 0.00 0.00 0.00 0.00 0.00 0.00 0.00 0.00 0.00 0.00 0.00 0.00 0.00 0.00 0.00 0.00 0.00 0.00 0.00 0.00 0.00 0.00 0.00 0.00 0.00 0.00 0.00 0.00 0.00 0.00 0.00 0.00 0.00 0.00 0.00 0.00 0.00 0.00 0.00 0.00
0.00 0.00 0.00 0.00 0.00 0.00 0.00 0.00 0.00 0.00 0.00 0.00 0.00 0.00 0.00 0.00 0.00 0.00 0.00 0.00 0.00 0.00 0.00 0.00 0.00 0.00 0.00 0.00 0.00 0.00 0.00 0.00 0.00 0.00 0.00 0.00 0.00 0.00 0.00 0.00 0.00 0.00 0.00
0.00 0.00 0.00 0.00 0.00 0.00 0.00 0.00 0.00 0.00 0.00 0.00 0.00 0.00 0.00 0.00 0.00 0.00 0.00 0.00 0.00 0.00 0.00 0.00 0.00 0.00 0.00 0.00 0.00 0.00 0.00 0.00 0.00 0.00 0.00 0.00 0.00 0.00 0.00 0.00 0.00 0.00 0.00
0.00 0.00 0.00 0.00 0.00 0.00 0.00 0.00 0.00 0.00 0.00 0.00 0.00 0.00 0.00 0.00 0.00 0.00 0.00 0.00 0.00 0.00 0.00 0.00 0.00 0.00 0.00 0.00 0.00 0.00 0.00 0.00 0.00 0.00 0.00 0.00 0.00 0.00 0.00 0.00 0.00 0.00 0.00
0.00 0.00 0.00 0.00 0.00 0.00 0.00 0.00 0.00 0.00 0.00 0.00 0.00 0.00 0.00 0.00 0.00 0.00 0.00 0.00 0.00 0.00 0.00 0.00 0.00 0.00 0.00 0.00 0.00 0.00 0.00 0.00 0.00 0.00 0.00 0.00 0.00 0.00 0.00 0.00 0.00 0.00 0.00
0.00 0.00 0.00 0.00 0.00 0.00 0.00 0.00 0.00 0.00 0.00 0.00 0.00 0.00 0.00 0.00 0.00 0.00 0.00 0.00 0.00 0.00 0.00 0.00 0.00 0.00 0.00 0.00 0.00 0.00 0.00 0.00 0.00 0.00 0.00 0.00 0.00 0.00 0.00 0.00 0.00 0.00 0.00
0.00 0.00 0.00 0.00 0.00 0.00 0.00 0.00 0.00 0.00 0.00 0.00 0.00 0.00 0.00 0.00 0.00 0.00 0.00 0.00 0.00 0.00 0.00 0.00 0.00 0.00 0.00 0.00 0.00 0.00 0.00 0.00 0.00 0.00 0.00 0.00 0.00 0.00 0.00 0.00 0.00 0.00 0.00
0.00 0.00 0.00 0.00 0.00 0.00 0.00 0.00 0.00 0.00 0.00 0.00 0.00 0.00 0.00 0.00 0.00 0.00 0.00 0.00 0.00 0.00 0.00 0.00 0.00 0.00 0.00 0.00 0.00 0.00 0.00 0.00 0.00 0.00 0.00 0.00 0.00 0.00 0.00 0.00 0.00 0.00 0.00
0.00 0.00 0.00 0.00 0.00 0.00 0.00 0.00 0.00 0.00 0.00 0.00 0.00 0.00 0.00 0.00 0.00 0.00 0.00 0.00 0.00 0.00 0.00 0.00 0.00 0.00 0.00 0.00 0.00 0.00 0.00 0.00 0.00 0.00 0.00 0.00 0.00 0.00 0.00 0.00 0.00 0.00 0.00
0.00 0.00 0.00 0.00 0.00 0.00 0.00 0.00 0.00 0.00 0.00 0.00 0.00 0.00 0.00 0.00 0.00 0.00 0.00 0.00 0.00 0.00 0.00 0.00 0.00 0.00 0.00 0.00 0.00 0.00 0.00 0.00 0.00 0.00 0.00 0.00 0.00 0.00 0.00 0.00 0.00 0.00 0.00
0.00 0.00 0.00 0.00 0.00 0.00 0.00 0.00 0.00 0.00 0.00 0.00 0.00 0.00 0.00 0.00 0.00 0.00 0.00 0.00 0.00 0.00 0.00 0.00 0.00 0.00 0.00 0.00 0.00 0.00 0.00 0.00 0.00 0.00 0.00 0.00 0.00 0.00 0.00 0.00 0.00 0.00 0.00
0.00 0.00 0.00 0.00 0.00 0.00 0.00 0.00 0.00 0.00 0.00 0.00 0.00 0.00 0.00 0.00 0.00 0.00 0.00 0.00 0.00 0.00 0.00 0.00 0.00 0.00 0.00 0.00 0.00 0.00 0.00 0.00 0.00 0.00 0.00 0.00 0.00 0.00 0.00 0.00 0.00 0.00 0.00
0.00 0.00 0.00 0.00 0.00 0.00 0.00 0.00 0.00 0.00 0.00 0.00 0.00 0.00 0.00 0.00 0.00 0.00 0.00 0.00 0.00 0.00 0.00 0.00 0.00 0.00 0.00 0.00 0.00 0.00 0.00 0.00 0.00 0.00 0.00 0.00 0.00 0.00 0.00 0.00 0.00 0.00 0.00
0.00 0.00 0.00 0.00 0.00 0.00 0.00 0.00 0.00 0.00 0.00 0.00 0.00 0.00 0.00 0.00 0.00 0.00 0.00 0.00 0.00 0.00 0.00 0.00 0.00 0.00 0.00 0.00 0.00 0.00 0.00 0.00 0.00 0.00 0.00 0.00 0.00 0.00 0.00 0.00 0.00 0.00 0.00
0.00 0.00 0.00 0.00 0.00 0.00 0.00 0.00 0.00 0.00 0.00 0.00 0.00 0.00 0.00 0.00 0.00 0.00 0.00 0.00 0.00 0.00 0.00 0.00 0.00 0.00 0.00 0.00 0.00 0.00 0.00 0.00 0.00 0.00 0.00 0.00 0.00 0.00 0.00 0.00 0.00 0.00 0.00
0.00 0.00 0.00 0.00 0.00 0.00 0.00 0.00 0.00 0.00 0.00 0.00 0.00 0.00 0.00 0.00 0.00 0.00 0.00 0.00 0.00 0.00 0.00 0.00 0.00 0.00 0.00 0.00 0.00 0.00 0.00 0.00 0.00 0.00 0.00 0.00 0.00 0.00 0.00 0.00 0.00 0.00 0.00
MSLP
1020.48 1019.96 1019.32 1018.41 1017.90 1017.58 1016.99 1016.68 1016.17 1015.45 1014.96 1014.41 1013.37 1012.56 1011.84 1011.19 1010.13 1009.74 1008.89 1007.60 1006.69 1005.46 1004.05 1003.45 1002.81 1002.52 1002.71 1002.95 1003.00 1003.08 1003.13 1003.35 1003.33 1003.65 1003.99 1004.51 1004.95 1005.01 1005.58 1005.98 1006.29 1006.34 1006.70
1020.73 1020.15 1019.34 1019.09 1018.53 1017.92 1017.61 1017.28 1016.77 1016.27 1015.45 1014.48 1013.58 1012.66 1012.10 1011.41 1010.63 1009.77 1008.87 1007.89 1006.79 1005.49 1004.49 1003.48 1002.54 1002.26 1002.03 1002.28 1002.39 1002.23 1002.36 1002.44 1002.61 1002.97 1003.53 1003.88 1004.13 1003.99 1004.33 1005.81 1005.63 1005.57 1005.89
1021.08 1020.50 1019.90 1019.62 1019.09 1018.48 1018.39 1017.99 1017.32 1016.60 1015.87 1014.83 1014.01 1013.20 1012.29 1011.41 1010.66 1009.79 1008.73 1007.48 1006.72 1005.94 1005.11 1003.91 1002.25 1001.72 1001.54 1001.44 1001.47 1001.43 1001.55 1001.43 1001.52 1001.82 1002.48 1002.70 1002.80 1003.27 1003.98 1005.07 1005.11 1005.16 1005.21
1021.35 1020.97 1020.60 1020.25 1019.78 1019.22 1019.27 1018.72 1018.15 1017.57 1016.87 1015.99 1014.77 1013.93 1012.97 1012.12 1011.33 1009.83 1008.78 1007.99 1007.54 1006.88 1006.02 1005.02 1004.21 1003.61 1002.94 1001.80 1001.05 1000.61 1000.76 1000.78 1001.08 1001.24 1001.53 1001.89 1001.69 1002.20 1002.72 1004.16 1004.48 1004.62 1004.92
1022.17 1021.76 1021.00 1020.74 1020.49 1020.22 1020.21 1019.81 1019.04 1018.74 1017.90 1016.64 1015.82 1014.79 1013.59 1012.27 1011.33 1010.48 1009.59 1009.20 1008.59 1007.74 1006.89 1006.05 1005.25 1004.66 1003.98 1002.97 1001.75 1000.11 1000.07 1000.08 1000.27 1000.43 1000.68 1000.85 1000.96 1001.70 1002.58 1002.92 1003.59 1004.08 1004.83
1022.56 1022.05 1021.88 1021.76 1021.55 1021.35 1020.91 1020.24 1019.68 1019.23 1018.45 1017.09 1016.35 1015.20 1014.06 1013.11 1012.54 1011.69 1011.04 1010.43 1009.67 1008.91 1008.11 1007.11 1006.09 1005.33 1004.14 1002.89 1001.81 1000.19 1000.04 999.88 999.93 999.84 999.89 1000.04 1000.14 1000.91 1001.37 1001.98 1002.87 1003.76 1004.75
1022.93 1022.77 1022.58 1022.69 1022.40 1022.00 1021.54 1020.83 1020.32 1019.80 1019.15 1018.18 1017.04 1016.33 1015.62 1014.70 1013.84 1012.84 1012.21 1011.88 1011.08 1010.17 1009.52 1008.45 1007.65 1006.76 1005.36 1003.91 1002.70 1002.38 1000.95 1000.95 1000.74 1000.36 999.77 999.66 999.65 999.61 1000.25 1001.17 1001.93 1002.38 1002.87
1023.80 1023.67 1023.51 1023.23 1022.84 1022.70 1022.23 1021.74 1021.17 1020.79 1020.26 1018.89 1018.06 1017.67 1017.10 1016.22 1015.11 1014.27 1013.67 1012.98 1012.10 1011.02 1010.40 1009.83 1008.97 1007.77 1006.72 1005.23 1003.93 1003.16 1001.82 1001.35 1001.49 1001.29 1001.30 1001.21 1000.70 998.96 998.89 999.38 1000.66 1002.08 1002.99
1024.50 1024.22 1024.25 1023.90 1023.56 1023.29 1022.86 1022.60 1022.20 1021.32 1020.66 1019.71 1019.02 1018.70 1018.16 1017.58 1016.47 1015.61 1014.62 1013.61 1012.58 1011.87 1011.42 1011.04 1010.05 1008.73 1007.84 1007.01 1006.02 1004.45 1003.41 1002.35 1003.28 1002.42 1001.97 1001.79 1001.42 1000.78 999.95 999.35 1000.64 1001.55 1003.38
1025.05 1024.96 1024.79 1024.42 1024.26 1024.06 1023.79 1023.16 1022.55 1021.93 1021.22 1020.58 1020.27 1019.85 1019.42 1018.71 1017.68 1016.53 1015.36 1014.33 1013.59 1013.08 1012.47 1011.90 1011.07 1010.07 1009.27 1007.84 1006.52 1005.47 1005.03 1004.48 1004.50 1003.54 1002.23 1001.87 1002.31 1001.81 1000.95 1000.07 999.78 1000.38 1002.08
1025.68 1025.58 1025.28 1024.98 1024.65 1024.45 1024.08 1023.31 1022.82 1022.41 1022.09 1021.64 1021.34 1020.90 1020.21 1019.37 1018.49 1017.41 1016.46 1015.68 1015.39 1014.55 1013.74 1012.88 1012.40 1011.72 1010.75 1009.67 1008.82 1008.06 1007.10 1006.23 1005.84 1004.59 1004.12 1003.60 1002.89 1002.19 1002.55 1001.32 1001.06 1000.89 1000.96
1025.99 1025.78 1025.52 1025.29 1024.90 1024.74 1024.55 1024.07 1023.53 1022.93 1022.52 1022.11 1021.64 1021.30 1020.80 1020.32 1019.51 1018.67 1017.66 1017.15 1016.78 1016.09 1015.43 1014.76 1014.19 1013.32 1012.31 1011.37 1010.49 1009.74 1008.75 1007.74 1006.93 1006.62 1005.92 1004.61 1004.09 1004.86 1003.70 1003.18 1003.06 1001.94 1001.59
1026.04 1025.87 1025.68 1025.57 1025.53 1025.41 1024.96 1024.51 1023.94 1023.43 1023.05 1022.91 1022.60 1022.06 1021.74 1021.18 1020.28 1019.48 1018.82 1018.36 1017.86 1017.49 1017.06 1016.49 1015.65 1014.80 1013.87 1012.93 1012.12 1011.09 1009.98 1009.36 1008.86 1008.04 1007.48 1006.80 1006.53 1006.21 1004.49 1004.35 1003.93 1002.74 1002.65
1026.23 1026.18 1026.19 1026.06 1026.09 1025.94 1025.52 1025.09 1024.63 1024.16 1023.83 1023.76 1023.60 1023.37 1022.94 1022.12 1021.22 1020.57 1020.07 1019.59 1019.11 1018.67 1018.11 1017.67 1017.13 1016.27 1015.51 1014.90 1013.75 1013.02 1012.52 1011.87 1010.91 1010.08 1009.43 1008.29 1007.48 1006.66 1006.04 1005.62 1005.19 1004.20 1003.78
1026.66 1026.69 1026.77 1026.88 1026.80 1026.63 1026.42 1025.86 1025.40 1025.09 1024.71 1024.54 1024.51 1024.31 1023.65 1023.07 1022.80 1022.32 1021.74 1021.17 1020.71 1020.38 1019.61 1018.91 1018.05 1017.28 1016.70 1016.21 1015.64 1015.10 1014.42 1013.51 1012.55 1011.73 1010.70 1009.94 1008.86 1008.35 1007.48 1006.59 1005.86 1005.57 1005.72
1027.40 1027.64 1027.82 1027.79 1027.68 1027.45 1027.28 1026.98 1026.39 1026.00 1025.69 1025.39 1024.99 1024.73 1024.88 1024.55 1024.17 1023.57 1023.10 1022.59 1022.04 1021.70 1021.17 1020.84 1020.42 1019.87 1019.27 1018.72 1017.88 1017.09 1016.26 1015.56 1014.76 1013.71 1012.77 1011.96 1010.76 1009.86 1008.93 1008.34 1007.85 1007.47 1007.43
1028.56 1028.76 1028.82 1028.67 1028.58 1028.49 1028.47 1028.26 1028.00 1027.49 1026.96 1026.42 1025.95 1025.62 1025.32 1025.23 1024.80 1024.37 1024.05 1023.82 1023.06 1022.43 1022.37 1022.49 1022.34 1021.94 1021.43 1020.86 1020.12 1019.32 1018.36 1017.50 1016.49 1015.46 1014.54 1013.62 1012.54 1011.60 1010.54 1010.06 1009.63 1009.01 1008.62
1029.81 1029.78 1029.69 1029.61 1029.52 1029.55 1029.82 1029.45 1029.24 1028.81 1028.38 1027.80 1027.23 1026.60 1026.30 1025.89 1025.58 1025.34 1025.06 1024.57 1024.02 1023.82 1024.06 1024.10 1023.84 1023.44 1022.95 1022.30 1021.69 1020.94 1019.99 1019.14 1018.20 1017.23 1016.12 1015.14 1014.18 1013.27 1012.13 1011.43 1010.88 1010.37 1009.85
1030.47 1030.45 1030.19 1030.03 1029.94 1029.95 1029.98 1029.78 1029.56 1029.28 1028.91 1028.57 1028.02 1027.70 1027.65 1026.71 1026.36 1026.24 1026.29 1026.17 1026.00 1025.74 1025.47 1025.20 1024.99 1024.65 1024.25 1023.73 1023.25 1022.47 1021.64 1020.86 1019.91 1018.84 1017.82 1016.79 1015.77 1014.78 1013.78 1012.91 1012.24 1011.54 1010.95
1030.88 1030.66 1030.57 1030.51 1030.42 1030.43 1030.47 1030.35 1030.08 1029.79 1029.50 1029.23 1029.09 1028.94 1028.48 1028.10 1027.78 1027.69 1027.38 1027.37 1027.31 1027.06 1026.77 1026.27 1025.92 1025.66 1025.34 1024.87 1024.22 1023.63 1022.79 1021.98 1021.02 1020.17 1019.31 1018.30 1017.26 1016.10 1015.08 1014.18 1013.39 1012.68 1011.93
1030.98 1030.95 1030.85 1030.81 1030.85 1031.00 1031.05 1030.86 1030.61 1030.47 1030.36 1030.15 1029.93 1029.66 1029.44 1029.17 1028.96 1028.68 1028.41 1028.16 1028.04 1027.71 1027.28 1026.97 1026.68 1026.29 1025.88 1025.51 1025.06 1024.55 1023.81 1023.15 1022.40 1021.59 1020.62 1019.46 1018.29 1017.14 1016.22 1015.22 1014.37 1013.63 1012.96
1031.26 1031.40 1031.32 1031.31 1031.53 1031.81 1031.78 1031.61 1031.46 1031.37 1031.42 1031.32 1031.01 1030.57 1030.16 1029.99 1029.86 1029.49 1029.16 1029.00 1028.79 1028.25 1027.79 1027.51 1027.07 1026.54 1026.25 1026.24 1025.88 1025.30 1024.64 1023.94 1023.23 1022.51 1021.60 1020.53 1019.39 1018.24 1017.37 1016.40 1015.56 1014.89 1014.22
1031.74 1031.86 1031.90 1032.16 1032.31 1032.70 1033.03 1032.84 1032.69 1032.71 1032.63 1032.48 1032.10 1031.65 1031.25 1031.02 1030.79 1030.52 1030.17 1029.77 1029.09 1028.67 1028.32 1027.97 1027.62 1026.83 1026.26 1026.21 1026.05 1025.76 1025.19 1024.60 1024.09 1023.46 1022.49 1021.36 1020.22 1019.22 1018.32 1017.53 1016.79 1016.06 1015.51
1032.24 1032.46 1032.64 1033.07 1033.48 1033.92 1034.30 1034.29 1034.03 1033.83 1033.68 1033.52 1033.19 1032.74 1032.47 1032.10 1031.75 1031.35 1030.68 1030.12 1029.50 1029.02 1028.58 1028.30 1027.78 1027.27 1026.64 1026.09 1025.77 1025.40 1024.96 1024.60 1024.13 1023.56 1023.08 1022.01 1020.97 1020.00 1019.20 1018.34 1017.62 1017.00 1016.38
1033.01 1033.39 1033.74 1034.23 1034.67 1035.25 1035.35 1035.37 1035.35 1035.18 1034.99 1034.70 1034.24 1033.78 1033.48 1033.06 1032.72 1032.30 1031.75 1031.08 1030.51 1029.79 1029.15 1028.62 1028.16 1027.63 1026.95 1026.33 1025.74 1025.21 1024.94 1024.56 1024.14 1023.80 1023.20 1022.43 1021.66 1020.82 1020.01 1019.34 1018.77 1017.85 1017.23
1033.94 1034.29 1034.75 1035.06 1035.53 1036.01 1036.35 1036.49 1036.38 1036.13 1036.02 1035.62 1035.20 1034.76 1034.42 1034.01 1033.63 1033.25 1032.58 1031.98 1031.38 1030.74 1030.10 1029.30 1028.61 1027.97 1027.31 1026.53 1025.91 1025.18 1024.83 1024.55 1024.16 1023.74 1023.50 1022.84 1022.17 1021.47 1020.76 1019.99 1019.35 1018.76 1018.08
Thickness
5433 5439 5445 5456 5461 5465 5471 5473 5477 5480 5481 5483 5492 5501 5508 5516 5529 5535 5544 5556 5565 5577 5592 5598 5604 5605 5604 5600 5596 5595 5594 5592 5591 5592 5591 5590 5591 5594 5593 5592 5598 5607 5608
5423 5430 5438 5441 5447 5453 5456 5458 5462 5464 5470 5477 5484 5491 5496 5504 5514 5523 5531 5540 5552 5564 5573 5585 5594 5594 5596 5592 5588 5587 5585 5585 5583 5582 5577 5578 5582 5587 5589 5583 5591 5598 5602
5413 5420 5426 5429 5434 5440 5439 5441 5447 5452 5457 5465 5471 5477 5485 5494 5502 5510 5521 5534 5541 5549 5555 5566 5585 5588 5590 5587 5583 5581 5581 5582 5583 5582 5579 5578 5583 5583 5580 5579 5585 5591 5596
5404 5408 5412 5416 5421 5425 5421 5425 5429 5432 5437 5444 5454 5461 5470 5477 5485 5499 5509 5517 5522 5527 5533 5541 5548 5551 5556 5569 5576 5580 5579 5579 5578 5579 5579 5579 5583 5581 5582 5578 5581 5586 5589
5386 5390 5399 5402 5404 5405 5403 5406 5412 5413 5419 5429 5435 5442 5453 5465 5474 5482 5490 5494 5499 5506 5513 5520 5526 5528 5532 5540 5553 5574 5576 5577 5577 5577 5577 5579 5579 5578 5576 5580 5581 5578 5576
5374 5380 5382 5382 5383 5384 5386 5392 5397 5400 5406 5417 5421 5430 5439 5447 5452 5460 5467 5472 5478 5485 5490 5497 5504 5508 5517 5528 5538 5553 5557 5573 5576 5577 5578 5579 5579 5575 5575 5576 5570 5569 5572
5361 5362 5363 5362 5365 5368 5372 5378 5382 5385 5390 5396 5405 5410 5415 5422 5429 5438 5444 5447 5453 5460 5465 5472 5477 5483 5494 5507 5519 5521 5536 5540 5544 5557 5576 5577 5576 5575 5576 5572 5570 5579 5582
5342 5343 5346 5348 5352 5354 5357 5361 5365 5366 5367 5380 5387 5388 5391 5397 5407 5414 5419 5424 5430 5440 5445 5448 5453 5462 5471 5485 5496 5503 5516 5523 5526 5528 5536 5541 5549 5569 5574 5574 5572 5563 5556
5330 5333 5335 5338 5342 5345 5348 5349 5351 5357 5360 5366 5370 5371 5373 5375 5384 5390 5398 5405 5414 5420 5423 5425 5432 5443 5452 5459 5467 5483 5493 5503 5501 5511 5519 5524 5531 5539 5551 5563 5557 5558 5540
5324 5326 5329 5332 5334 5335 5337 5343 5347 5348 5353 5357 5356 5356 5357 5359 5366 5374 5382 5388 5393 5397 5401 5405 5414 5421 5429 5442 5454 5464 5469 5476 5482 5494 5508 5513 5513 5521 5531 5543 5557 5562 5542
5318 5319 5323 5326 5329 5331 5334 5341 5343 5343 5343 5344 5343 5345 5348 5352 5357 5363 5368 5372 5372 5378 5381 5387 5391 5397 5406 5416 5425 5433 5443 5453 5461 5475 5482 5489 5498 5506 5507 5521 5526 5536 5542
5317 5319 5322 5324 5328 5330 5330 5332 5335 5338 5339 5340 5341 5340 5341 5342 5346 5350 5355 5356 5356 5359 5362 5365 5367 5374 5381 5390 5399 5408 5418 5430 5442 5448 5457 5469 5476 5473 5486 5495 5500 5513 5519
5317 5319 5321 5322 5323 5323 5326 5328 5330 5331 5332 5331 5330 5332 5331 5333 5338 5342 5344 5345 5345 5344 5344 5345 5349 5354 5360 5366 5375 5385 5397 5405 5414 5424 5432 5440 5446 5451 5468 5472 5481 5493 5498
5317 5317 5317 5318 5318 5318 5319 5320 5321 5322 5322 5320 5318 5318 5319 5323 5326 5328 5328 5328 5329 5330 5333 5333 5334 5338 5341 5343 5352 5357 5362 5370 5382 5392 5403 5415 5425 5435 5443 5449 5457 5468 5476
5313 5313 5312 5311 5311 5310 5309 5310 5310 5311 5311 5310 5308 5307 5309 5310 5309 5310 5311 5312 5312 5312 5315 5317 5321 5324 5326 5328 5331 5333 5338 5344 5354 5363 5377 5387 5399 5406 5416 5427 5437 5443 5446
5308 5305 5303 5302 5301 5301 5300 5299 5299 5299 5299 5298 5298 5297 5292 5292 5291 5292 5292 5293 5294 5293 5294 5293 5294 5297 5300 5302 5306 5311 5316 5319 5324 5333 5342 5353 5368 5378 5389 5397 5405 5412 5416
5297 5296 5293 5293 5292 5290 5288 5286 5282 5283 5283 5284 5284 5283 5281 5278 5278 5278 5277 5275 5277 5279 5276 5272 5270 5270 5271 5273 5278 5282 5288 5294 5302 5308 5315 5323 5334 5347 5359 5366 5372 5382 5389
5284 5283 5282 5281 5279 5276 5271 5269 5266 5264 5262 5266 5269 5268 5266 5264 5262 5260 5257 5257 5256 5254 5249 5245 5244 5245 5246 5249 5250 5253 5259 5265 5272 5280 5289 5297 5304 5314 5328 5336 5344 5351 5359
5275 5273 5272 5271 5269 5266 5264 5262 5260 5258 5255 5254 5253 5251 5247 5246 5244 5240 5236 5230 5226 5223 5221 5220 5217 5216 5216 5217 5219 5223 5228 5231 5238 5247 5256 5265 5275 5284 5295 5305 5313 5322 5330
5268 5267 5265 5263 5261 5258 5254 5252 5251 5248 5245 5240 5237 5232 5230 5227 5220 5215 5210 5203 5199 5195 5191 5189 5187 5186 5184 5184 5187 5189 5194 5200 5207 5213 5219 5229 5240 5252 5263 5273 5283 5293 5302
5262 5260 5257 5255 5251 5246 5242 5240 5237 5233 5229 5224 5219 5213 5209 5205 5199 5194 5189 5184 5178 5174 5170 5165 5159 5154 5152 5154 5155 5155 5159 5162 5168 5174 5182 5192 5204 5217 5227 5240 5251 5261 5271
5253 5250 5247 5244 5238 5232 5229 5225 5220 5215 5209 5203 5198 5193 5188 5181 5174 5169 5164 5157 5152 5148 5143 5138 5135 5131 5127 5122 5118 5118 5123 5127 5131 5136 5144 5154 5166 5177 5187 5199 5211 5222 5233
5242 5238 5235 5230 5225 5218 5211 5207 5201 5195 5188 5182 5177 5172 5166 5158 5150 5143 5136 5130 5125 5120 5115 5110 5105 5102 5099 5096 5093 5091 5090 5092 5096 5101 5108 5117 5127 5138 5149 5160 5170 5181 5192
5231 5226 5223 5216 5208 5201 5191 5186 5181 5176 5169 5161 5154 5149 5141 5134 5126 5118 5111 5104 5098 5091 5085 5080 5075 5073 5072 5071 5068 5065 5064 5065 5066 5070 5075 5084 5093 5104 5113 5125 5135 5143 5153
5218 5212 5206 5198 5190 5180 5174 5168 5160 5153 5146 5140 5133 5126 5117 5109 5100 5091 5083 5076 5069 5064 5059 5055 5050 5046 5043 5041 5039 5037 5035 5035 5038 5042 5048 5054 5062 5071 5081 5090 5099 5111 5119
5205 5199 5191 5185 5176 5167 5157 5148 5140 5133 5126 5119 5111 5102 5094 5085 5077 5068 5060 5052 5046 5040 5035 5030 5025 5020 5016 5013 5011 5011 5011 5010 5012 5017 5022 5029 5035 5044 5052 5062 5071 5081 5090